Content
SEND FEEDBACK

Daily
Averages
Monthly
Summary
Brazil

RIO DE JANEIRO, RIO DE JANEIRO


Home > South America > Brazil > Rio De Janeiro
Elevation: 20 feet     Latitude: 22 49S     Longitude: 043 15W

WEATHER
 
SELECT A DAY
Number of Records: 197,928;   Date Range: 6/30/96 - 12/16/14
 
SHARE

PRINT THIS DATA

[ ← Previous Day ]
WEATHER ALMANAC - MARCH 8, 2013
[ Next Day → ]
[ °C ]   °F
Weather ElementAverageHighLow
Temperature83.2 °F92 °F (12:00 pm)78.8 °F (4:00 am)
Dewpoint74.4 °F77 °F (4:00 pm)71 °F (12:00 pm)
Humidity74.3 %89 % (5:00 am)42 % (12:00 pm)
Barometer29.96 in30.04 in (12:00 am)29.89 in (3:00 pm)
Wind Speed7.1 mph17.3 mph (4:00 pm)
Weather ElementAverage
Visibility6.3 mi
Wind DirectionSE (138.2 °)

Weather ElementTotal
Precipitation---
Cooling Degree Days20.4 (Base 65)
Growing Degree Days35.4 (Base 50)
Averaged from 31 records on March 8, 2013
WEATHER CONDITIONS BREAKOUT
WIND DIRECTION BREAKOUT
WEATHER BY HOUR - MARCH 8, 2013
[ °C ]   °F
Local TimeTemperatureDewpointHumidityBarometerVisibilityWind DirectionWind SpeedGust SpeedPrecipitationEventsConditions
12:00 AM82.4 °F73.4 °F74 %30.04 in6.2 miNorth (350°)4.6 mphMostly Cloudy
1:00 AM80.6 °F73.4 °F79 %30.01 in6.2 miNNW (340°)4.6 mphMostly Cloudy
2:00 AM80.6 °F75.2 °F84 %29.98 in6.2 miNorth (10°)4.6 mphScattered Clouds
3:00 AM80.0 °F74.0 °F76 %29.97 in7.0 miCalmMist
3:00 AM80.6 °F73.4 °F79 %29.95 in6.2 miCalmScattered Clouds
4:00 AM78.8 °F73.4 °F83 %29.95 in6.2 miNorth (10°)3.5 mphPartly Cloudy
5:00 AM78.8 °F75.2 °F89 %29.95 in6.2 miCalmPartly Cloudy
6:00 AM78.8 °F75.2 °F89 %29.98 in6.2 miCalmPartly Cloudy
6:00 AM79.0 °F74.0 °F81 %29.98 in7.0 miCalmMist
7:00 AM78.8 °F75.2 °F89 %29.98 in6.2 miENE (70°)5.8 mphPartly Cloudy
8:00 AM82.4 °F75.2 °F79 %30.01 in5.0 miCalmScattered Clouds
9:00 AM84.0 °F75.0 °F67 %30.03 in5.0 miCalmHaze
9:00 AM84.2 °F75.2 °F74 %30.01 in5.0 miCalmScattered Clouds
10:00 AM86.0 °F75.2 °F70 %30.04 in5.6 miNorth (350°)4.6 mphScattered Clouds
11:00 AM87.8 °F75.2 °F66 %30.01 in5.6 miNorth (350°)5.8 mphScattered Clouds
12:00 PM91.4 °F71.6 °F52 %29.98 in6.2 miNNW (340°)11.5 mphPartly Cloudy
12:00 PM92.0 °F71.0 °F42 %29.98 in6.0 miNNW (340°)11.5 mphHaze
1:00 PM89.6 °F75.2 °F62 %29.95 in6.2 miESE (110°)11.5 mphPartly Cloudy
2:00 PM89.6 °F73.4 °F59 %29.92 in6.2 miESE (120°)15.0 mphPartly Cloudy
3:00 PM87.0 °F75.0 °F60 %29.91 in8.0 miESE (120°)13.8 mphHaze
3:00 PM86.0 °F75.2 °F70 %29.89 in6.2 miESE (120°)13.8 mphPartly Cloudy
4:00 PM84.2 °F77.0 °F79 %29.89 in6.2 miESE (120°)17.3 mphPartly Cloudy
5:00 PM82.4 °F75.2 °F79 %29.89 in6.2 miESE (120°)15.0 mphPartly Cloudy
6:00 PM82.4 °F75.2 °F79 %29.92 in6.2 miESE (120°)12.7 mphPartly Cloudy
6:00 PM82.0 °F76.0 °F76 %29.92 in8.0 miESE (120°)12.7 mphMist
7:00 PM82.4 °F75.2 °F79 %29.95 in6.2 miSE (130°)11.5 mphMostly Cloudy
8:00 PM80.6 °F75.2 °F84 %29.95 in6.2 miESE (110°)11.5 mphMostly Cloudy
9:00 PM82.0 °F74.0 °F70 %29.97 in9.0 miSE (140°)8.1 mphHaze
9:00 PM82.4 °F73.4 °F74 %29.98 in6.2 miSE (140°)8.1 mphMostly Cloudy
10:00 PM80.6 °F73.4 °F79 %29.95 in6.2 miESE (110°)6.9 mphScattered Clouds
11:00 PM80.6 °F73.4 °F79 %29.95 in6.2 miSE (130°)5.8 mphScattered Clouds
Hourly data recorded from SBGL, located miles away from Rio De Janeiro, Rio De Janeiro







STORIES FROM OUR PARTNERS